Theta_e
334 340 340 339 339 338 336 333 332 332 329 329 331 329 329 332 327 325 324 323 321 319 321 321 320 320 320 320 320 318 317 315
335 339 340 340 338 336 335 332 330 330 331 329 329 329 330 331 326 325 324 323 320 319 320 321 321 321 321 321 320 319 318 317
333 334 336 339 338 337 335 333 332 329 332 331 330 327 327 331 328 327 331 324 320 319 320 321 321 321 322 321 321 320 319 319
331 332 334 335 335 335 334 333 331 329 329 330 328 329 329 330 333 333 333 325 324 318 320 321 322 323 324 323 323 321 320 320
330 332 332 332 332 332 333 333 332 331 331 331 331 330 328 331 332 334 334 327 321 319 320 322 323 324 324 324 324 323 321 320
331 332 330 330 330 331 332 333 330 329 332 332 332 329 330 332 332 334 334 334 323 319 320 322 324 324 323 325 325 324 322 321
332 331 331 330 331 330 330 331 331 330 330 330 330 330 331 332 333 332 332 334 334 334 337 326 328 329 324 326 326 326 323 323
331 331 331 330 330 330 330 330 330 330 330 330 330 331 331 332 331 332 332 333 335 334 337 338 336 337 330 329 330 332 335 336
331 330 330 330 330 329 330 331 330 330 330 330 330 330 331 332 332 330 331 332 334 332 326 333 337 337 339 339 337 336 336 334
330 330 330 330 330 330 330 330 329 329 329 328 328 329 329 329 331 331 330 331 334 336 325 324 336 337 337 337 335 333 332 323
328 329 329 329 330 330 330 328 328 328 327 328 328 327 327 328 329 332 330 330 334 337 330 323 324 337 336 334 331 329 329 325
326 327 328 329 329 328 328 327 327 327 325 325 326 325 326 327 328 331 328 330 333 336 332 324 323 327 326 325 327 322 327 329
326 326 327 326 328 328 326 326 325 325 324 325 325 325 325 325 328 330 332 329 330 330 331 325 324 323 326 324 323 328 328 325
328 327 327 327 329 327 325 324 325 324 324 324 325 325 325 327 328 329 331 328 327 328 332 326 325 323 325 325 323 328 328 330
327 327 326 326 327 327 325 324 324 324 324 325 325 324 325 327 329 330 330 327 325 325 334 326 324 324 324 322 324 329 327 331
327 328 324 324 325 326 326 324 323 324 325 325 325 324 326 328 328 326 324 324 323 327 330 326 327 325 325 328 328 329 331 332
326 326 326 325 325 327 326 324 324 325 326 326 325 325 328 328 324 324 324 323 324 329 331 329 329 326 329 329 328 330 331 332
324 324 325 325 325 326 326 326 325 325 325 325 325 327 328 330 326 324 323 324 328 331 327 326 327 329 329 328 329 331 331 333
322 324 324 324 324 325 325 325 325 325 325 325 324 327 329 331 330 329 328 327 329 331 323 324 330 329 323 328 328 330 332 333
321 322 324 323 327 325 326 328 327 326 325 325 324 328 329 331 331 331 331 329 328 324 322 323 323 328 330 329 329 331 331 331
Wind_Speed
5 8 10 3 10 6 2 2 3 5 6 2 2 3 4 6 11 13 14 12 13 15 16 16 14 12 11 10 7 5 6 7
9 12 9 9 8 3 5 5 3 4 6 4 4 2 3 6 12 15 15 14 13 16 17 17 15 13 12 11 8 7 7 8
12 14 10 8 10 7 8 3 4 3 4 4 3 5 8 6 14 15 16 17 15 18 19 18 18 16 15 13 12 11 10 10
13 15 8 10 13 12 12 7 3 5 4 2 4 8 6 6 12 15 16 19 18 19 20 20 20 20 20 19 17 14 13 12
15 12 11 13 9 13 16 12 7 4 7 5 2 10 10 8 10 16 18 21 19 20 22 22 22 25 24 21 19 17 16 14
13 14 12 2 10 5 8 7 1 3 6 7 11 11 10 9 10 16 21 21 23 23 23 23 26 28 26 23 21 19 18 17
19 14 11 5 8 2 3 11 12 10 13 15 15 12 13 13 13 17 22 23 23 21 22 24 24 24 27 25 22 22 21 19
21 13 15 9 10 9 10 17 21 20 20 13 13 17 17 17 18 18 22 24 25 25 24 22 21 21 23 24 22 20 16 15
26 26 23 21 23 23 18 18 26 25 24 22 23 22 22 22 20 19 20 24 26 31 31 26 21 19 18 18 16 16 17 16
32 32 24 20 29 27 27 25 31 29 27 30 28 25 25 25 25 23 21 23 27 29 34 32 22 21 19 18 16 15 14 17
29 31 30 29 31 32 34 29 32 27 27 25 25 28 31 29 27 25 23 21 27 30 33 34 32 21 21 20 18 16 15 15
35 34 32 28 29 33 34 31 34 27 28 27 26 30 29 28 28 25 22 19 24 31 32 34 33 30 27 26 19 20 13 13
25 31 28 32 27 28 33 28 32 28 24 26 28 30 28 26 26 24 22 21 26 30 31 34 32 31 28 24 23 14 12 17
26 23 24 18 30 24 23 24 24 21 24 28 29 30 28 24 25 25 23 23 26 24 28 34 34 30 28 22 20 14 13 13
26 25 24 25 35 25 30 23 19 22 26 29 33 32 28 23 21 22 22 23 25 21 26 32 31 31 27 24 18 13 13 12
28 21 17 27 33 23 27 25 25 25 27 30 31 31 27 22 21 24 22 20 17 19 25 29 27 25 20 15 14 12 11 12
26 25 24 26 30 27 27 19 27 31 30 31 32 33 22 20 19 16 15 13 15 21 26 26 22 20 15 13 12 10 11 12
24 19 22 23 29 27 22 25 28 33 30 32 29 26 18 16 10 10 9 12 17 21 24 24 20 15 12 11 10 9 9 12
26 19 18 22 28 28 27 33 35 31 27 28 27 25 18 11 7 8 11 14 18 21 24 23 17 15 12 9 8 7 8 7
24 20 23 21 24 27 25 27 22 29 30 32 25 20 13 10 10 12 13 17 19 23 26 22 17 11 10 8 7 8 7 8
Wind_Direction
231 238 247 241 181 134 183 256 243 220 244 241 253 258 269 253 210 200 188 185 186 188 190 199 201 205 212 220 239 269 286 302
247 240 238 264 170 153 241 177 240 278 241 214 275 312 268 240 220 209 196 192 195 194 193 198 200 204 207 215 231 258 285 300
238 250 253 231 261 276 257 223 240 244 256 269 21 331 292 253 217 213 199 199 206 202 200 205 208 211 216 223 234 249 266 286
240 244 230 250 248 250 244 233 204 213 274 282 28 13 338 279 230 218 208 210 211 211 207 212 217 221 226 229 234 247 257 273
260 272 264 257 254 241 239 213 203 324 266 279 334 351 346 314 250 227 219 218 220 220 214 217 223 229 233 236 239 248 258 268
247 257 270 246 234 259 235 234 237 281 261 275 339 319 324 307 274 243 226 223 222 224 221 221 224 228 234 240 243 250 262 268
250 249 246 188 236 211 269 271 272 264 269 287 295 300 304 302 279 258 238 229 221 222 218 221 222 229 232 237 242 250 258 263
249 263 270 241 246 278 278 274 276 273 271 276 274 290 289 285 281 272 250 238 225 221 218 216 213 214 232 233 239 244 247 254
248 256 260 280 271 272 264 271 272 283 298 288 283 281 281 277 273 268 265 245 233 230 226 218 215 213 217 221 228 235 242 252
263 262 261 260 273 279 267 270 274 285 286 289 288 285 282 277 272 270 269 249 232 226 227 225 212 217 218 217 224 234 247 267
252 262 265 268 268 270 276 280 277 282 286 281 283 284 284 278 271 267 266 252 229 225 230 226 224 216 216 220 231 237 249 262
257 256 261 260 265 270 271 277 278 278 282 283 286 287 286 277 268 266 270 255 228 226 229 224 227 224 230 234 231 245 244 247
247 252 252 261 265 261 267 268 271 277 280 284 289 294 286 278 269 267 269 263 237 235 226 224 224 227 228 233 235 234 239 256
232 232 245 239 260 260 268 266 271 270 280 288 290 292 285 276 266 269 265 259 248 236 221 221 217 220 222 224 235 231 241 247
245 242 238 233 256 252 259 256 260 273 281 287 295 293 282 279 274 271 265 253 251 230 211 213 215 215 213 224 228 232 245 249
258 240 224 241 249 254 258 258 273 277 281 289 294 290 286 284 276 270 257 249 233 213 205 203 203 202 205 214 222 233 241 252
245 244 242 236 253 260 258 267 270 277 286 285 289 292 286 281 275 259 240 222 203 194 194 186 186 190 198 211 224 233 243 256
255 247 242 253 265 274 269 262 271 276 278 282 284 287 285 271 260 236 208 187 183 183 186 184 185 181 193 205 223 230 244 254
249 252 249 259 266 267 265 259 257 268 266 271 274 279 274 244 211 186 179 177 172 173 177 179 177 187 199 207 224 248 262 265
250 252 253 245 268 266 270 268 262 264 269 266 268 264 244 210 181 175 162 159 162 167 176 183 185 182 185 206 230 236 236 242